Location: Grisols
(45.0093°N, 3.1167°E)
Time: 15:33:59
(UTC+00:00)

Cosmos 44 - Pass Details

Date: 21 October 2019
Orbit: 593 x 769 km, 65.1° (Epoch: 21 November)

Event Time Altitude Azimuth Distance (km) Brightness Sun altitude
Rises 19:01:47 0° 215° (SW) 3,110 7.0 -23.4°
Reaches altitude 10° 19:04:11 10° 216° (SW) 2,167 6.2 -23.8°
Maximum altitude 19:09:08 84° 305° (NW) 687 3.2 -24.7°
Enters shadow 19:09:44 68° 19° (NNE) 728 3.2 -24.8°
